Regional Weather Roundup
Issued by NWS

Home | Current Version | Previous Version | Graphics & Text | Print | Product List | Glossary On
Versions: 1 2 3 4 5 6 7 8 9 10 11 12 13 14 15 16 17 18 19 20 21 22 23 24 25 26 27 28
000
ASUS45 KGTF 252310
RWRMT
MONTANA HOURLY WEATHER ROUNDUP
NATIONAL WEATHER SERVICE GREAT FALLS MT
500 PM MDT SAT APR 25 2015

NOTE: "FAIR" INDICATES FEW OR NO CLOUDS BELOW 12000 FEET WITH NO
SIGNIFICANT WEATHER AND/OR OBSTRUCTIONS TO VISIBILITY.

MTZ001>007-043-260000-
WEST OF THE DIVIDE

CITY           SKY/WX    TMP DP  RH WIND       PRES   REMARKS
KALISPELL      PTCLDY    56  24  29 VRB6      29.80R
MISSOULA       CLOUDY    54  20  26 NW8       29.80S
BUTTE          CLOUDY    44  25  47 E5        29.80S
DEER LODGE       N/A     46  21  36 W13       29.82S
EUREKA           N/A     52  28  40 SW10G21   29.83R
HAMILTON         N/A     55  19  24 CALM      29.75F
LIBBY            N/A     52  30  43 SW3       29.85F
$$

MTZ008-052>055-260000-
SOUTHWEST MONTANA

CITY           SKY/WX    TMP DP  RH WIND       PRES   REMARKS
BOZEMAN        MOSUNNY   47  31  53 SE3       29.80S
DILLON         MOSUNNY   47  34  60 N10       29.76S
$$

MTZ009-010-012-014-046-048-049-054-260000-
EAST SLOPES AND CENTRAL MONTANA

CITY           SKY/WX    TMP DP  RH WIND       PRES   REMARKS
CUT BANK       CLOUDY    48  26  42 NE20      29.83R
GREAT FALLS    PTSUNNY   54  25  32 NE12      29.80S
MALMSTROM AFB  MOSUNNY   53  27  36 NE9G20    29.81S
HELENA         PTSUNNY   54  26  34 VRB7      29.78R
$$

MTZ011-013-016-021-045-047-050-051-260000-
NORTH CENTRAL MONTANA

CITY           SKY/WX    TMP DP  RH WIND       PRES   REMARKS
HAVRE          PTSUNNY   50  34  54 NW17G26   29.84R
LEWISTOWN      PTSUNNY   50  30  46 W15       29.82S
CHINOOK          N/A     52  34  50 NW13G20   29.82R
FORT BENTON      N/A     54  30  40 NE13      29.83R
$$

MTZ017>020-022>042-056>058-061-062-260000-
EASTERN PLAINS

CITY           SKY/WX    TMP DP  RH WIND       PRES   REMARKS
BAKER          LGT RAIN  44  42  93 W18       29.79R
BILLINGS       MOSUNNY   49  36  61 E10       29.82S
GLASGOW        LGT RAIN  44  40  85 NW15      29.77R
JORDAN           N/A     48  41  76 NW17      29.79R
LIVINGSTON     CLOUDY    50  31  48 MISG      29.79S
MILES CITY     CLOUDY    46  42  86 NW15      29.81R
SIDNEY         CLOUDY    55  43  62 SE15      29.74R
WOLF POINT     LGT RAIN  46  42  86 W14       29.76S FOG
BIG TIMBER       N/A     45  37  76 SE8       29.82R
FORSYTH          N/A     46  41  81 W9        29.81S
PLENTYWOOD       N/A     54  45  71 SE21G26   29.72S
POPLAR           N/A     46  45  93 SW14      29.76R
$$

REGIONAL REPORTS...DAKOTAS

CITY           SKY/WX    TMP DP  RH WIND       PRES   REMARKS
WILLISTON      CLOUDY    56  43  61 SE12      29.74R
MINOT          CLOUDY    57  40  52 SE16      29.80S
DICKINSON      CLOUDY    49  42  77 S17       29.76R
BEACH          CLOUDY    48  48 100 S17       29.76R
CROSBY         FAIR      57  41  54 SE21G29   29.76S
WATFORD CITY   CLOUDY    54  43  66 SE17G26   29.74R
BISMARCK       CLOUDY    49  42  77 SE15      29.84R
GRAND FORKS    CLOUDY    62  38  40 S10       29.89R
FARGO          SUNNY     62  37  39 SE12      29.88S
BUFFALO SD       N/A     49  45  86 SE9       29.73R
RAPID CITY     CLOUDY    51  47  86 S6        29.73S
$$

REGIONAL REPORTS...WYOMING/IDAHO/WASHINGTON

CITY           SKY/WX    TMP DP  RH WIND       PRES   REMARKS
GILLETTE       CLOUDY    45  35  68 N14       29.80R
SHERIDAN       CLOUDY    46  35  65 NW16      29.82R
BUFFALO WY     CLOUDY    45  34  65 N20G29    29.81R
CODY           CLOUDY    46  34  61 N8        29.79S
YELLOWSTONE LA   N/A     40  23  50 VRB6      29.82S
IDAHO FALLS    PTSUNNY   57  24  28 VRB3      29.72F
SALMON         CLOUDY    52  25  35 SW5       29.71F
BOISE          PTSUNNY   58  23  26 NW10G23   29.75F
SPOKANE        CLOUDY    50  33  52 SE7       29.86S
$$

REGIONAL REPORTS...ALBERTA

CITY           SKY/WX    TMP DP  RH WIND       PRES   REMARKS
EDMONTON       MOSUNNY   45  16  31 NE6       30.00S
CALGARY        CLOUDY    36  27  69 N21       29.94R WCI  24
LETHBRIDGE     PTSUNNY   46  30  53 NE18G24   29.89R
MEDICINE HAT   CLOUDY    39  34  81 N13       29.90R WCI  32
$$

REGIONAL REPORTS...SASKATCHEWAN

CITY           SKY/WX    TMP DP  RH WIND       PRES   REMARKS
SWIFT CURRENT  LGT RAIN  34  34 100 NW15      29.80S FOG     WCI  24
REGINA         CLOUDY    48  43  81 SE21G32   29.78S
SASKATOON      SNOW      32  30  93 NE17G23   29.93R VSB 1/2 WCI  21
$$



USA.gov is the U.S. government's official web portal to all federal, state and local government web resources and services.